tititudorancea.com
Ararat Weather - Ararat,Victoria,Australia
 
Daily Summary for October 24, 2014 Units:  Metric    English   Both
« Previous Day
Next Day »
Daily Weekly Monthly Yearly Custom
  Current: High: Low: Average:
Temperature: 12.9 °C 13.7 °C 12.9 °C 13.3 °C
Dew Point: 12.8 °C 13.6 °C 12.8 °C 13.2 °C
Humidity: 99% 99% 99% 99%
Wind Speed: 3.5km/h 7.2km/h 1.1km/h 3.9km/h
Wind Gust: 6.1km/h 13.4km/h - -
WindSouth - - SSW
Pressure: 1011.4 hPa 1013.4 hPa 1011.4 hPa -
Precipitation: 0 mm      
Historical Graphs
 
 
Ararat weather Find more about Weather in Ararat, AU


 




 


Tabular Data for October 24, 2014
Time Temperature Dew Point Pressure Wind Wind Speed Wind Gust Humidity Rainfall Rate (Hourly)
00:04 13.7 °C 13.6 °C 1013.1 hPa NNW 5 km/h 13.4 km/h 99% 0 mm
00:09 13.7 °C 13.6 °C 1013.1 hPa West 6.1 km/h 12.2 km/h 99% 0 mm
00:14 13.6 °C 13.5 °C 1013.1 hPa West 5 km/h 12.2 km/h 99% 0 mm
00:19 13.6 °C 13.5 °C 1013.1 hPa SW 7.2 km/h 12.2 km/h 99% 0 mm
00:24 13.6 °C 13.5 °C 1013.4 hPa WSW 5 km/h 11.1 km/h 99% 0 mm
00:29 13.6 °C 13.5 °C 1013.1 hPa WNW 6.1 km/h 11.1 km/h 99% 0 mm
00:34 13.6 °C 13.5 °C 1012.8 hPa WNW 7.2 km/h 12.2 km/h 99% 0 mm
00:39 13.6 °C 13.5 °C 1012.8 hPa West 3.5 km/h 12.2 km/h 99% 0 mm
00:44 13.6 °C 13.5 °C 1012.8 hPa SW 5 km/h 12.2 km/h 99% 0 mm
00:49 13.5 °C 13.4 °C 1012.8 hPa South 2.6 km/h 9.7 km/h 99% 0 mm
00:54 13.5 °C 13.4 °C 1012.8 hPa NNW 7.2 km/h 13.4 km/h 99% 0 mm
00:59 13.5 °C 13.4 °C 1012.8 hPa WSW 3.5 km/h 13.4 km/h 99% 0 mm
01:04 13.4 °C 13.3 °C 1012.8 hPa WSW 3.5 km/h 13.4 km/h 99% 0 mm
01:09 13.4 °C 13.3 °C 1012.8 hPa NW 5 km/h 11.1 km/h 99% 0 mm
01:14 13.4 °C 13.3 °C 1012.8 hPa NNW 3.5 km/h 11.1 km/h 99% 0 mm
01:19 13.4 °C 13.3 °C 1012.8 hPa NNW 5 km/h 9.7 km/h 99% 0 mm
01:24 13.4 °C 13.3 °C 1012.4 hPa North 2.6 km/h 9.7 km/h 99% 0 mm
01:29 13.3 °C 13.2 °C 1012.4 hPa South 2.6 km/h 8.7 km/h 99% 0 mm
01:34 13.3 °C 13.2 °C 1012.4 hPa South 3.5 km/h 8.7 km/h 99% 0 mm
01:39 13.3 °C 13.2 °C 1012.1 hPa South 3.5 km/h 8.7 km/h 99% 0 mm
01:44 13.2 °C 13.1 °C 1012.1 hPa South 3.5 km/h 8.7 km/h 99% 0 mm
01:49 13.2 °C 13.1 °C 1012.1 hPa South 2.6 km/h 8.7 km/h 99% 0 mm
01:54 13.1 °C 13 °C 1012.1 hPa SW 1.1 km/h 8.7 km/h 99% 0 mm
01:59 13.1 °C 13 °C 1012.1 hPa WSW 3.5 km/h 8.7 km/h 99% 0 mm
02:04 13.1 °C 13 °C 1011.7 hPa South 5 km/h 8.7 km/h 99% 0 mm
02:09 13.1 °C 13 °C 1011.7 hPa South 2.6 km/h 8.7 km/h 99% 0 mm
02:14 13.1 °C 13 °C 1011.7 hPa North 2.6 km/h 8.7 km/h 99% 0 mm
02:19 13.1 °C 13 °C 1011.7 hPa South 3.5 km/h 8.7 km/h 99% 0 mm
02:24 13.1 °C 12.9 °C 1011.7 hPa North 3.5 km/h 8.7 km/h 99% 0 mm
02:29 13.1 °C 12.9 °C 1011.7 hPa North 1.1 km/h 7.2 km/h 99% 0 mm
02:34 13.1 °C 12.9 °C 1011.7 hPa North 2.6 km/h 7.2 km/h 99% 0 mm
02:39 13.1 °C 12.9 °C 1011.7 hPa WNW 1.1 km/h 6.1 km/h 99% 0 mm
02:44 12.9 °C 12.8 °C 1011.4 hPa South 3.5 km/h 6.1 km/h 99% 0 mm
www.araratweather.com - Email: contact at araratweather.com
Data created with Cumulus & bmak
Click here to send mail.


ABOUT

Live weather data from Ararat, Victoria, Australia, 3377
Data uploaded from Cumulus every 5 minutes to Weather Underground.
This site then downloads the raw data for formatting and display.
Metric and imperial data can be displayed. Graphs and historical data available.
Includes Sun and Moon times and rain image live from BOM.

Check out Ararat Weather on Facebook, Twitter and Google +

Help support ongoing costs by checking out the ads





Follow @AraratWeather